| time (UTC) | temp C | wind direction | speed KPH | gust KPH | rain 1hr cm | rain 24hr cm | rain mn cm | humidity % | barometer mb |
| 20260502112142 | 6 | 247 | 6.4 | 9.7 | 0.00 | 0.00 | 0.00 | 85 | 1024.9 |
| 20260502111633 | 6 | 247 | 6.4 | 9.7 | 0.00 | 0.00 | 0.00 | 85 | 1024.7 |
| 20260502111121 | 6 | 247 | 4.8 | 9.7 | 0.00 | 0.00 | 0.00 | 83 | 1024.6 |
| 20260502110612 | 6 | 247 | 6.4 | 9.7 | 0.00 | 0.00 | 0.00 | 83 | 1024.6 |
| 20260502105550 | 6 | 247 | 3.2 | 6.4 | 0.00 | 0.00 | 0.00 | 84 | 1024.4 |
| 20260502105041 | 6 | 247 | 3.2 | 9.7 | 0.00 | 0.00 | 0.00 | 84 | 1024.4 |
| 20260502104531 | 6 | 247 | 6.4 | 11.3 | 0.00 | 0.00 | 0.00 | 84 | 1024.1 |
| 20260502104028 | 6 | 270 | 6.4 | 11.3 | 0.00 | 0.00 | 0.00 | 82 | 1024.2 |
| 20260502103511 | 6 | 247 | 6.4 | 9.7 | 0.00 | 0.00 | 0.00 | 83 | 1024.2 |
| 20260502103003 | 6 | 247 | 6.4 | 9.7 | 0.00 | 0.00 | 0.00 | 84 | 1024.0 |
| 20260502102451 | 6 | 270 | 6.4 | 9.7 | 0.00 | 0.00 | 0.00 | 83 | 1024.0 |
| 20260502101942 | 6 | 247 | 6.4 | 6.4 | 0.00 | 0.00 | 0.00 | 83 | 1023.8 |
| 20260502101430 | 6 | 247 | 4.8 | 6.4 | 0.00 | 0.00 | 0.00 | 83 | 1023.8 |
| 20260502100920 | 6 | 247 | 4.8 | 9.7 | 0.00 | 0.00 | 0.00 | 83 | 1023.7 |
| 20260502100410 | 6 | 247 | 6.4 | 9.7 | 0.00 | 0.00 | 0.00 | 83 | 1023.6 |
| 20260502091503 | 6 | 247 | 3.2 | 9.7 | 0.00 | 0.00 | 0.00 | 81 | 1022.7 |
| 20260502090956 | 6 | 247 | 4.8 | 9.7 | 0.00 | 0.00 | 0.00 | 79 | 1022.4 |
| 20260502071448 | 8 | 225 | 6.4 | 11.3 | 0.00 | 0.00 | 0.00 | 80 | 1020.0 |
| 20260502070937 | 8 | 225 | 6.4 | 9.7 | 0.00 | 0.00 | 0.00 | 80 | 1019.9 |
| 20260502070426 | 8 | 247 | 4.8 | 6.4 | 0.00 | 0.00 | 0.00 | 80 | 1019.8 |
| 20260502065848 | 8 | 225 | 4.8 | 6.4 | 0.00 | 0.00 | 0.00 | 81 | 1019.8 |
| 20260502065337 | 8 | 225 | 4.8 | 6.4 | 0.00 | 0.00 | 0.00 | 81 | 1019.6 |
| 20260502064828 | 8 | 247 | 4.8 | 6.4 | 0.00 | 0.00 | 0.00 | 81 | 1019.7 |